Content
SEND FEEDBACK

Daily
Averages
Monthly
Summary
United States of America

MOUNT HOLLY, NORTH CAROLINA


Home > North America > United States > North Carolina
Elevation: 67 feet     Latitude: 35 20N     Longitude: 080 59W

WEATHER
 
SELECT A DAY
Number of Records: 196,521;   Date Range: 1/1/95 - 10/24/14
 
SHARE

PRINT THIS DATA

[ ← Previous Day ]
WEATHER ALMANAC - JANUARY 31, 2013
[ Next Day → ]
[ °C ]   °F
Weather ElementAverageHighLow
Temperature44.2 °F50 °F (3:52 pm)37.9 °F (9:52 pm)
Dewpoint25.2 °F44.1 °F (1:52 am)16 °F (5:52 pm)
Humidity50 %83 % (1:52 am)30 % (12:52 pm)
Barometer29.87 in30.04 in (9:52 pm)29.56 in (1:52 am)
Wind Speed11.2 mph17.3 mph (1:52 am)
Wind Gust31.1 mph (5:52 am)
Weather ElementAverage
Visibility9.9 mi
Wind DirectionW (264.4 °)

Weather ElementTotal
Precipitation0.05 in
Heating Degree Days21.1 (Base 65)
Averaged from 25 records on January 31, 2013
WEATHER CONDITIONS BREAKOUT
WIND DIRECTION BREAKOUT
WEATHER BY HOUR - JANUARY 31, 2013
[ °C ]   °F
Local TimeTemperatureDewpointHumidityBarometerVisibilityWind DirectionWind SpeedGust SpeedPrecipitationEventsConditions
1:52 AM48.9 °F44.1 °F83 %29.56 in10.0 miWSW (240°)17.3 mph25.3 mphMostly Cloudy
2:52 AM48.0 °F42.1 °F80 %29.60 in10.0 miWSW (240°)15.0 mph28.8 mphOvercast
3:20 AM48.2 °F41.0 °F76 %29.63 in10.0 miWSW (250°)13.8 mph24.2 mphMostly Cloudy
3:52 AM46.9 °F39.9 °F77 %29.64 in10.0 miWSW (250°)12.7 mph24.2 mphOvercast
4:37 AM42.8 °F37.4 °F81 %29.69 in7.0 miWest (270°)13.8 mph25.3 mph0.02 inRainLight Rain
4:52 AM43.0 °F35.1 °F74 %29.70 in10.0 miWest (270°)13.8 mph21.9 mph0.03 inOvercast
5:52 AM42.1 °F28.0 °F58 %29.74 in10.0 miWest (270°)15.0 mph31.1 mphPartly Cloudy
6:52 AM39.9 °F21.9 °F49 %29.79 in10.0 miWNW (300°)11.5 mph25.3 mphClear
7:52 AM39.0 °F21.9 °F50 %29.86 in10.0 miWest (280°)11.5 mph23.0 mphClear
8:52 AM39.9 °F21.0 °F47 %29.90 in10.0 miWNW (290°)15.0 mph27.6 mphClear
9:52 AM43.0 °F21.0 °F42 %29.91 in10.0 miWest (280°)10.4 mph19.6 mphClear
10:52 AM45.0 °F21.0 °F39 %29.94 in10.0 miWest (280°)9.2 mph20.7 mphClear
11:52 AM46.9 °F21.9 °F37 %29.93 in10.0 miWNW (300°)13.8 mph21.9 mphClear
12:52 PM48.0 °F18.0 °F30 %29.92 in10.0 miWest (260°)15.0 mph21.9 mphPartly Cloudy
1:52 PM48.9 °F19.9 °F32 %29.91 in10.0 miWest (260°)10.4 mph20.7 mphPartly Cloudy
2:52 PM48.9 °F19.9 °F32 %29.93 in10.0 miWest (270°)10.4 mph19.6 mphScattered Clouds
3:52 PM50.0 °F21.0 °F32 %29.95 in10.0 miWest (260°)8.1 mph24.2 mphPartly Cloudy
4:52 PM48.9 °F19.9 °F32 %29.97 in10.0 miWNW (290°)10.4 mphPartly Cloudy
5:52 PM45.0 °F16.0 °F31 %30.00 in10.0 miWNW (290°)12.7 mph20.7 mphPartly Cloudy
6:52 PM43.0 °F17.1 °F35 %30.01 in10.0 miWNW (290°)5.8 mphPartly Cloudy
7:52 PM41.0 °F18.0 °F40 %30.03 in10.0 miWest (280°)3.5 mphClear
8:52 PM39.0 °F19.9 °F46 %30.02 in10.0 miSouth (190°)3.5 mphClear
9:52 PM37.9 °F21.9 °F53 %30.04 in10.0 miWSW (240°)6.9 mphClear
10:52 PM39.9 °F21.0 °F47 %30.04 in10.0 miSW (230°)11.5 mph18.4 mphClear
11:52 PM41.0 °F21.9 °F47 %30.04 in10.0 miSW (230°)9.2 mph20.7 mphClear
Hourly data recorded from KCLT, located miles away from Mount Holly, North Carolina







STORIES FROM OUR PARTNERS